Time,TemperatureF,DewpointF,PressureIn,WindDirection,WindDirectionDegrees,WindSpeedMPH,WindSpeedGustMPH,Humidity,HourlyPrecipIn,Conditions,Clouds,dailyrainin,SoftwareType,DateUTC
2013-03-02 00:01:00,31.0,18.0,-100.00,NW,320,6.0,24.0,56,-99.99,,,-99.99,,2013-03-02 07:01:00,
2013-03-02 00:11:00,31.0,18.0,-100.00,NW,315,7.0,16.0,56,-99.99,,,-99.99,,2013-03-02 07:11:00,
2013-03-02 00:21:00,31.0,18.0,-100.00,WNW,295,6.0,14.0,57,-99.99,,,-99.99,,2013-03-02 07:21:00,
2013-03-02 00:32:00,31.0,18.0,-100.00,South,190,2.0,16.0,56,-99.99,,,-99.99,,2013-03-02 07:32:00,
2013-03-02 00:42:00,31.0,18.0,-100.00,West,275,9.0,25.0,56,-99.99,,,-99.99,,2013-03-02 07:42:00,
2013-03-02 00:51:00,31.0,18.0,-100.00,NW,315,7.0,27.0,57,-99.99,,,-99.99,,2013-03-02 07:51:00,
2013-03-02 01:01:00,31.0,18.0,-100.00,NW,325,7.0,23.0,58,-99.99,,,-99.99,,2013-03-02 08:01:00,
2013-03-02 01:11:00,30.0,18.0,-100.00,WNW,300,5.0,13.0,59,-99.99,,,-99.99,,2013-03-02 08:11:00,
2013-03-02 01:21:00,31.0,18.0,-100.00,SW,215,7.0,21.0,58,-99.99,,,-99.99,,2013-03-02 08:21:00,
2013-03-02 01:32:00,31.0,18.0,-100.00,NW,315,7.0,14.0,58,-99.99,,,-99.99,,2013-03-02 08:32:00,
2013-03-02 01:42:00,31.0,18.0,-100.00,WNW,300,3.0,14.0,58,-99.99,,,-99.99,,2013-03-02 08:42:00,
2013-03-02 01:52:00,31.0,18.0,-100.00,SSW,210,4.0,17.0,58,-99.99,,,-99.99,,2013-03-02 08:52:00,
2013-03-02 02:01:00,31.0,18.0,-100.00,West,265,8.0,20.0,57,-99.99,,,-99.99,,2013-03-02 09:01:00,
2013-03-02 02:11:00,32.0,18.0,-100.00,SSW,205,7.0,21.0,56,-99.99,,,-99.99,,2013-03-02 09:11:00,
2013-03-02 02:21:00,32.0,18.0,-100.00,West,270,5.0,18.0,56,-99.99,,,-99.99,,2013-03-02 09:21:00,
2013-03-02 02:31:00,32.0,18.0,-100.00,SW,215,6.0,24.0,56,-99.99,,,-99.99,,2013-03-02 09:31:00,
2013-03-02 02:42:00,32.0,18.0,-100.00,West,265,11.0,21.0,56,-99.99,,,-99.99,,2013-03-02 09:42:00,
2013-03-02 02:51:00,32.0,18.0,-100.00,WNW,290,7.0,22.0,56,-99.99,,,-99.99,,2013-03-02 09:51:00,
2013-03-02 03:01:00,31.0,18.0,-100.00,SW,230,7.0,32.0,56,-99.99,,,-99.99,,2013-03-02 10:01:00,
2013-03-02 03:15:00,32.0,18.0,-100.00,SW,220,10.0,19.0,56,-99.99,,,-99.99,,2013-03-02 10:15:00,
2013-03-02 03:21:00,31.0,18.0,-100.00,West,280,10.0,22.0,57,-99.99,,,-99.99,,2013-03-02 10:21:00,
2013-03-02 03:31:00,31.0,18.0,-100.00,SW,225,8.0,27.0,57,-99.99,,,-99.99,,2013-03-02 10:31:00,
2013-03-02 03:42:00,31.0,18.0,-100.00,WSW,240,6.0,22.0,57,-99.99,,,-99.99,,2013-03-02 10:42:00,
2013-03-02 03:51:00,31.0,18.0,-100.00,West,265,6.0,16.0,58,-99.99,,,-99.99,,2013-03-02 10:51:00,
2013-03-02 04:01:00,31.0,18.0,-100.00,WNW,295,5.0,22.0,57,-99.99,,,-99.99,,2013-03-02 11:01:00,
2013-03-02 04:11:00,31.0,18.0,-100.00,WNW,285,6.0,14.0,57,-99.99,,,-99.99,,2013-03-02 11:11:00,
2013-03-02 04:21:00,31.0,18.0,-100.00,WNW,290,7.0,20.0,58,-99.99,,,-99.99,,2013-03-02 11:21:00,
2013-03-02 04:32:00,31.0,18.0,-100.00,NW,315,6.0,16.0,58,-99.99,,,-99.99,,2013-03-02 11:32:00,
2013-03-02 04:41:00,31.0,18.0,-100.00,WNW,295,4.0,15.0,58,-99.99,,,-99.99,,2013-03-02 11:41:00,
2013-03-02 04:52:00,31.0,18.0,-100.00,West,275,6.0,14.0,58,-99.99,,,-99.99,,2013-03-02 11:52:00,
2013-03-02 05:02:00,31.0,18.0,-100.00,NW,325,8.0,16.0,57,-99.99,,,-99.99,,2013-03-02 12:02:00,
2013-03-02 05:11:00,31.0,18.0,-100.00,West,280,9.0,19.0,57,-99.99,,,-99.99,,2013-03-02 12:11:00,
2013-03-02 05:21:00,31.0,18.0,-100.00,WSW,240,6.0,19.0,56,-99.99,,,-99.99,,2013-03-02 12:21:00,
2013-03-02 05:32:00,31.0,18.0,-100.00,South,190,2.0,14.0,57,-99.99,,,-99.99,,2013-03-02 12:32:00,
2013-03-02 05:43:00,31.0,18.0,-100.00,WSW,250,6.0,17.0,57,-99.99,,,-99.99,,2013-03-02 12:43:00,
2013-03-02 05:53:00,31.0,18.0,-100.00,WNW,290,9.0,17.0,57,-99.99,,,-99.99,,2013-03-02 12:53:00,
2013-03-02 06:01:00,32.0,18.0,-100.00,NW,325,9.0,16.0,56,-99.99,,,-99.99,,2013-03-02 13:01:00,
2013-03-02 06:11:00,32.0,18.0,-100.00,WNW,290,6.0,18.0,56,-99.99,,,-99.99,,2013-03-02 13:11:00,
2013-03-02 06:21:00,32.0,18.0,-100.00,NNW,330,9.0,17.0,55,-99.99,,,-99.99,,2013-03-02 13:21:00,
2013-03-02 06:31:00,32.0,18.0,-100.00,West,280,10.0,21.0,55,-99.99,,,-99.99,,2013-03-02 13:31:00,
2013-03-02 06:41:00,32.0,18.0,-100.00,WNW,300,7.0,16.0,55,-99.99,,,-99.99,,2013-03-02 13:41:00,
2013-03-02 06:52:00,31.0,18.0,-100.00,NNW,335,6.0,14.0,56,-99.99,,,-99.99,,2013-03-02 13:52:00,
2013-03-02 07:01:00,31.0,18.0,-100.00,NNW,335,8.0,17.0,56,-99.99,,,-99.99,,2013-03-02 14:01:00,
2013-03-02 07:11:00,31.0,18.0,-100.00,SE,145,2.0,17.0,56,-99.99,,,-99.99,,2013-03-02 14:11:00,
2013-03-02 07:21:00,31.0,17.0,-100.00,North,355,2.0,9.0,56,-99.99,,,-99.99,,2013-03-02 14:21:00,
2013-03-02 07:32:00,31.0,17.0,-100.00,North,10,1.0,14.0,56,-99.99,,,-99.99,,2013-03-02 14:32:00,
2013-03-02 07:42:00,31.0,17.0,-100.00,SE,130,2.0,12.0,56,-99.99,,,-99.99,,2013-03-02 14:42:00,
2013-03-02 07:52:00,32.0,18.0,-100.00,NW,310,7.0,18.0,54,-99.99,,,-99.99,,2013-03-02 14:52:00,
2013-03-02 08:02:00,32.0,18.0,-100.00,ENE,75,4.0,12.0,54,-99.99,,,-99.99,,2013-03-02 15:02:00,
2013-03-02 08:11:00,33.0,18.0,-100.00,NW,325,6.0,16.0,54,-99.99,,,-99.99,,2013-03-02 15:11:00,
2013-03-02 08:21:00,33.0,18.0,-100.00,North,5,4.0,16.0,53,-99.99,,,-99.99,,2013-03-02 15:21:00,
2013-03-02 08:31:00,33.0,18.0,-100.00,West,270,4.0,11.0,53,-99.99,,,-99.99,,2013-03-02 15:31:00,
2013-03-02 08:41:00,33.0,18.0,-100.00,East,95,2.0,10.0,53,-99.99,,,-99.99,,2013-03-02 15:41:00,
2013-03-02 08:52:00,34.0,18.0,-100.00,WNW,295,4.0,15.0,52,-99.99,,,-99.99,,2013-03-02 15:52:00,
2013-03-02 09:01:00,34.0,19.0,-100.00,NE,50,5.0,9.0,51,-99.99,,,-99.99,,2013-03-02 16:01:00,
2013-03-02 09:11:00,35.0,19.0,-100.00,WNW,300,6.0,16.0,51,-99.99,,,-99.99,,2013-03-02 16:11:00,
2013-03-02 09:21:00,35.0,19.0,-100.00,NW,320,11.0,19.0,51,-99.99,,,-99.99,,2013-03-02 16:21:00,
2013-03-02 09:31:00,35.0,19.0,-100.00,NNW,335,9.0,24.0,50,-99.99,,,-99.99,,2013-03-02 16:31:00,
2013-03-02 09:41:00,35.0,19.0,-100.00,NW,325,7.0,22.0,50,-99.99,,,-99.99,,2013-03-02 16:41:00,
2013-03-02 09:51:00,36.0,19.0,-100.00,NW,320,5.0,16.0,50,-99.99,,,-99.99,,2013-03-02 16:51:00,
2013-03-02 10:01:00,36.0,19.0,-100.00,North,5,6.0,17.0,50,-99.99,,,-99.99,,2013-03-02 17:01:00,
2013-03-02 10:11:00,36.0,19.0,-100.00,NW,320,9.0,17.0,49,-99.99,,,-99.99,,2013-03-02 17:11:00,
2013-03-02 10:21:00,36.0,19.0,-100.00,NW,320,5.0,18.0,49,-99.99,,,-99.99,,2013-03-02 17:21:00,
2013-03-02 10:32:00,37.0,19.0,-100.00,WNW,295,7.0,17.0,49,-99.99,,,-99.99,,2013-03-02 17:32:00,
2013-03-02 10:42:00,36.0,19.0,-100.00,WNW,295,6.0,22.0,49,-99.99,,,-99.99,,2013-03-02 17:42:00,
2013-03-02 10:52:00,36.0,19.0,-100.00,North,0,3.0,17.0,49,-99.99,,,-99.99,,2013-03-02 17:52:00,
2013-03-02 11:01:00,37.0,20.0,-100.00,NW,320,4.0,11.0,48,-99.99,,,-99.99,,2013-03-02 18:01:00,
2013-03-02 11:11:00,37.0,19.0,-100.00,SSW,195,4.0,17.0,48,-99.99,,,-99.99,,2013-03-02 18:11:00,
2013-03-02 11:22:00,37.0,20.0,-100.00,NW,320,3.0,14.0,48,-99.99,,,-99.99,,2013-03-02 18:22:00,
2013-03-02 11:32:00,37.0,20.0,-100.00,SW,215,5.0,11.0,48,-99.99,,,-99.99,,2013-03-02 18:32:00,
2013-03-02 11:42:00,37.0,20.0,-100.00,NNW,330,6.0,20.0,48,-99.99,,,-99.99,,2013-03-02 18:42:00,
2013-03-02 11:51:00,37.0,19.0,-100.00,NW,315,9.0,20.0,48,-99.99,,,-99.99,,2013-03-02 18:51:00,
2013-03-02 12:01:00,37.0,20.0,-100.00,West,280,4.0,14.0,48,-99.99,,,-99.99,,2013-03-02 19:01:00,
2013-03-02 12:11:00,37.0,20.0,-100.00,SSW,205,5.0,13.0,48,-99.99,,,-99.99,,2013-03-02 19:11:00,
2013-03-02 12:21:00,39.0,20.0,-100.00,WSW,245,2.0,12.0,47,-99.99,,,-99.99,,2013-03-02 19:21:00,
2013-03-02 12:31:00,38.0,20.0,-100.00,NNW,340,3.0,18.0,47,-99.99,,,-99.99,,2013-03-02 19:31:00,
2013-03-02 12:42:00,37.0,20.0,-100.00,NW,310,6.0,13.0,48,-99.99,,,-99.99,,2013-03-02 19:42:00,
2013-03-02 12:52:00,39.0,21.0,-100.00,NNW,345,4.0,16.0,47,-99.99,,,-99.99,,2013-03-02 19:52:00,
2013-03-02 13:01:00,41.0,21.0,-100.00,NNW,330,6.0,16.0,45,-99.99,,,-99.99,,2013-03-02 20:01:00,
2013-03-02 13:11:00,41.0,22.0,-100.00,NW,305,4.0,17.0,45,-99.99,,,-99.99,,2013-03-02 20:11:00,
2013-03-02 13:21:00,41.0,22.0,-100.00,NW,320,2.0,14.0,44,-99.99,,,-99.99,,2013-03-02 20:21:00,
2013-03-02 13:32:00,41.0,21.0,-100.00,SW,235,7.0,19.0,44,-99.99,,,-99.99,,2013-03-02 20:32:00,
2013-03-02 13:42:00,40.0,20.0,-100.00,WNW,285,9.0,19.0,44,-99.99,,,-99.99,,2013-03-02 20:42:00,
2013-03-02 13:52:00,42.0,22.0,-100.00,WSW,240,9.0,14.0,44,-99.99,,,-99.99,,2013-03-02 20:52:00,
2013-03-02 14:02:00,41.0,21.0,-100.00,NNW,335,6.0,17.0,44,-99.99,,,-99.99,,2013-03-02 21:02:00,
2013-03-02 14:11:00,42.0,21.0,-100.00,SW,230,6.0,17.0,43,-99.99,,,-99.99,,2013-03-02 21:11:00,
2013-03-02 14:22:00,42.0,21.0,-100.00,SW,230,6.0,19.0,43,-99.99,,,-99.99,,2013-03-02 21:22:00,
2013-03-02 14:32:00,42.0,21.0,-100.00,WNW,285,7.0,17.0,42,-99.99,,,-99.99,,2013-03-02 21:32:00,
2013-03-02 14:42:00,42.0,21.0,-100.00,West,275,7.0,14.0,43,-99.99,,,-99.99,,2013-03-02 21:42:00,
2013-03-02 14:52:00,42.0,21.0,-100.00,WSW,240,3.0,17.0,43,-99.99,,,-99.99,,2013-03-02 21:52:00,
2013-03-02 15:01:00,42.0,22.0,-100.00,West,280,5.0,14.0,43,-99.99,,,-99.99,,2013-03-02 22:01:00,
2013-03-02 15:11:00,43.0,22.0,-100.00,SW,220,4.0,14.0,42,-99.99,,,-99.99,,2013-03-02 22:11:00,
2013-03-02 15:21:00,41.0,21.0,-100.00,WNW,285,6.0,17.0,43,-99.99,,,-99.99,,2013-03-02 22:21:00,
2013-03-02 15:32:00,41.0,21.0,-100.00,NW,305,8.0,17.0,44,-99.99,,,-99.99,,2013-03-02 22:32:00,
2013-03-02 15:42:00,41.0,21.0,-100.00,WNW,295,7.0,14.0,45,-99.99,,,-99.99,,2013-03-02 22:42:00,
2013-03-02 15:51:00,40.0,21.0,-100.00,NW,320,8.0,21.0,45,-99.99,,,-99.99,,2013-03-02 22:51:00,
2013-03-02 16:01:00,42.0,22.0,-100.00,NW,320,5.0,11.0,45,-99.99,,,-99.99,,2013-03-02 23:01:00,
2013-03-02 16:11:00,41.0,22.0,-100.00,NW,315,6.0,15.0,45,-99.99,,,-99.99,,2013-03-02 23:11:00,
2013-03-02 16:21:00,42.0,22.0,-100.00,NW,310,4.0,14.0,44,-99.99,,,-99.99,,2013-03-02 23:21:00,
2013-03-02 16:32:00,41.0,21.0,-100.00,NW,325,1.0,16.0,44,-99.99,,,-99.99,,2013-03-02 23:32:00,
2013-03-02 16:42:00,40.0,21.0,-100.00,SE,135,3.0,12.0,45,-99.99,,,-99.99,,2013-03-02 23:42:00,
2013-03-02 16:52:00,40.0,21.0,-100.00,North,355,2.0,10.0,44,-99.99,,,-99.99,,2013-03-02 23:52:00,
2013-03-02 17:02:00,40.0,20.0,-100.00,North,0,4.0,12.0,44,-99.99,,,-99.99,,2013-03-03 00:02:00,
2013-03-02 17:11:00,40.0,20.0,-100.00,North,0,6.0,14.0,44,-99.99,,,-99.99,,2013-03-03 00:11:00,
2013-03-02 17:22:00,39.0,20.0,-100.00,North,0,5.0,17.0,45,-99.99,,,-99.99,,2013-03-03 00:22:00,
2013-03-02 17:32:00,39.0,20.0,-100.00,NE,45,2.0,9.0,46,-99.99,,,-99.99,,2013-03-03 00:32:00,
2013-03-02 17:42:00,39.0,20.0,-100.00,North,5,4.0,11.0,46,-99.99,,,-99.99,,2013-03-03 00:42:00,
2013-03-02 17:52:00,38.0,19.0,-100.00,NE,45,3.0,9.0,46,-99.99,,,-99.99,,2013-03-03 00:52:00,
2013-03-02 18:01:00,38.0,19.0,-100.00,North,0,2.0,9.0,46,-99.99,,,-99.99,,2013-03-03 01:01:00,
2013-03-02 18:11:00,38.0,19.0,-100.00,NW,315,4.0,9.0,45,-99.99,,,-99.99,,2013-03-03 01:11:00,
2013-03-02 18:21:00,37.0,19.0,-100.00,North,5,4.0,7.0,46,-99.99,,,-99.99,,2013-03-03 01:21:00,
2013-03-02 18:31:00,37.0,19.0,-100.00,NNW,335,3.0,9.0,47,-99.99,,,-99.99,,2013-03-03 01:31:00,
2013-03-02 18:41:00,37.0,19.0,-100.00,South,185,2.0,7.0,48,-99.99,,,-99.99,,2013-03-03 01:41:00,
2013-03-02 18:52:00,36.0,19.0,-100.00,West,280,4.0,10.0,48,-99.99,,,-99.99,,2013-03-03 01:52:00,
2013-03-02 19:01:00,36.0,19.0,-100.00,ESE,115,1.0,15.0,49,-99.99,,,-99.99,,2013-03-03 02:01:00,
2013-03-02 19:11:00,36.0,19.0,-100.00,WSW,245,3.0,12.0,48,-99.99,,,-99.99,,2013-03-03 02:11:00,
2013-03-02 19:21:00,37.0,19.0,-100.00,SE,140,4.0,11.0,47,-99.99,,,-99.99,,2013-03-03 02:21:00,
2013-03-02 19:31:00,36.0,18.0,-100.00,ENE,70,6.0,7.0,47,-99.99,,,-99.99,,2013-03-03 02:31:00,
2013-03-02 19:41:00,36.0,18.0,-100.00,East,80,3.0,7.0,48,-99.99,,,-99.99,,2013-03-03 02:41:00,
2013-03-02 19:52:00,36.0,19.0,-100.00,NE,55,2.0,9.0,48,-99.99,,,-99.99,,2013-03-03 02:52:00,
2013-03-02 20:01:00,35.0,18.0,-100.00,East,100,2.0,6.0,50,-99.99,,,-99.99,,2013-03-03 03:01:00,
2013-03-02 20:11:00,36.0,19.0,-100.00,NW,325,4.0,12.0,51,-99.99,,,-99.99,,2013-03-03 03:11:00,
2013-03-02 20:21:00,36.0,20.0,-100.00,North,0,1.0,9.0,50,-99.99,,,-99.99,,2013-03-03 03:21:00,
2013-03-02 20:31:00,36.0,20.0,-100.00,SE,130,2.0,10.0,51,-99.99,,,-99.99,,2013-03-03 03:31:00,
2013-03-02 20:41:00,36.0,20.0,-100.00,West,270,1.0,9.0,52,-99.99,,,-99.99,,2013-03-03 03:41:00,
2013-03-02 20:51:00,36.0,20.0,-100.00,South,175,2.0,9.0,51,-99.99,,,-99.99,,2013-03-03 03:51:00,
2013-03-02 21:01:00,36.0,20.0,-100.00,North,0,2.0,8.0,50,-99.99,,,-99.99,,2013-03-03 04:01:00,
2013-03-02 21:11:00,36.0,20.0,-100.00,ENE,75,1.0,7.0,51,-99.99,,,-99.99,,2013-03-03 04:11:00,
2013-03-02 21:21:00,35.0,20.0,-100.00,SE,145,2.0,12.0,52,-99.99,,,-99.99,,2013-03-03 04:21:00,
2013-03-02 21:31:00,36.0,20.0,-100.00,NNW,335,4.0,9.0,50,-99.99,,,-99.99,,2013-03-03 04:31:00,
2013-03-02 21:41:00,37.0,20.0,-100.00,North,0,6.0,9.0,49,-99.99,,,-99.99,,2013-03-03 04:41:00,
2013-03-02 21:51:00,39.0,20.0,-100.00,NW,320,11.0,22.0,45,-99.99,,,-99.99,,2013-03-03 04:51:00,
2013-03-02 22:01:00,39.0,19.0,-100.00,NW,315,7.0,21.0,44,-99.99,,,-99.99,,2013-03-03 05:01:00,
2013-03-02 22:11:00,39.0,19.0,-100.00,NNW,335,8.0,24.0,43,-99.99,,,-99.99,,2013-03-03 05:11:00,
2013-03-02 22:22:00,39.0,19.0,-100.00,WNW,295,7.0,19.0,43,-99.99,,,-99.99,,2013-03-03 05:22:00,
2013-03-02 22:32:00,39.0,18.0,-100.00,NW,315,7.0,20.0,43,-99.99,,,-99.99,,2013-03-03 05:32:00,
2013-03-02 22:42:00,39.0,19.0,-100.00,West,260,4.0,15.0,42,-99.99,,,-99.99,,2013-03-03 05:42:00,
2013-03-02 22:52:00,39.0,18.0,-100.00,NW,325,6.0,14.0,43,-99.99,,,-99.99,,2013-03-03 05:52:00,
2013-03-02 23:01:00,39.0,18.0,-100.00,WNW,290,3.0,11.0,43,-99.99,,,-99.99,,2013-03-03 06:01:00,
2013-03-02 23:11:00,37.0,18.0,-100.00,North,355,1.0,9.0,45,-99.99,,,-99.99,,2013-03-03 06:11:00,
2013-03-02 23:21:00,34.0,18.0,-100.00,SE,140,1.0,4.0,51,-99.99,,,-99.99,,2013-03-03 06:21:00,
2013-03-02 23:31:00,35.0,18.0,-100.00,NNW,335,5.0,11.0,49,-99.99,,,-99.99,,2013-03-03 06:31:00,
2013-03-02 23:42:00,33.0,18.0,-100.00,SE,135,2.0,6.0,52,-99.99,,,-99.99,,2013-03-03 06:42:00,
2013-03-02 23:52:00,31.0,17.0,-100.00,SW,215,1.0,3.0,54,-99.99,,,-99.99,,2013-03-03 06:52:00,